Time,TemperatureF,DewpointF,PressureIn,WindDirection,WindDirectionDegrees,WindSpeedMPH,WindSpeedGustMPH,Humidity,HourlyPrecipIn,Conditions,Clouds,dailyrainin,SoftwareType,DateUTC
2013-04-23 00:01:00,42.0,34.0,30.40,NNW,336,0.0,0.0,72,0.00,,,0.00,,2013-04-23 07:01:00,
2013-04-23 00:11:00,42.0,34.0,30.40,NNW,336,0.0,0.0,72,0.00,,,0.00,,2013-04-23 07:11:00,
2013-04-23 00:21:00,42.0,33.0,30.40,NNW,336,0.0,0.0,70,0.00,,,0.00,,2013-04-23 07:21:00,
2013-04-23 00:32:00,42.0,33.0,30.40,NNW,336,0.0,1.0,69,0.00,,,0.00,,2013-04-23 07:32:00,
2013-04-23 00:41:00,42.0,33.0,30.40,NNW,336,0.0,1.0,69,0.00,,,0.00,,2013-04-23 07:41:00,
2013-04-23 00:52:00,42.0,33.0,30.40,NNW,336,0.0,0.0,71,0.00,,,0.00,,2013-04-23 07:52:00,
2013-04-23 01:01:00,41.0,33.0,30.40,NNW,336,0.0,0.0,74,0.00,,,0.00,,2013-04-23 08:01:00,
2013-04-23 01:11:00,41.0,33.0,30.40,NNW,336,0.0,0.0,74,0.00,,,0.00,,2013-04-23 08:11:00,
2013-04-23 01:21:00,40.0,33.0,30.40,NNW,336,0.0,0.0,76,0.00,,,0.00,,2013-04-23 08:21:00,
2013-04-23 01:31:00,39.0,33.0,30.40,NNW,336,0.0,0.0,80,0.00,,,0.00,,2013-04-23 08:31:00,
2013-04-23 01:42:00,39.0,33.0,30.40,NNW,336,0.0,0.0,80,0.00,,,0.00,,2013-04-23 08:42:00,
2013-04-23 01:52:00,38.0,34.0,30.40,NNW,336,0.0,0.0,84,0.00,,,0.00,,2013-04-23 08:52:00,
2013-04-23 02:01:00,38.0,34.0,30.39,NNW,336,0.0,1.0,85,0.00,,,0.00,,2013-04-23 09:01:00,
2013-04-23 02:11:00,38.0,34.0,30.39,NNW,336,0.0,1.0,85,0.00,,,0.00,,2013-04-23 09:11:00,
2013-04-23 02:21:00,37.0,34.0,30.39,NNW,336,0.0,1.0,88,0.00,,,0.00,,2013-04-23 09:21:00,
2013-04-23 02:32:00,37.0,34.0,30.39,NNW,336,0.0,0.0,89,0.00,,,0.00,,2013-04-23 09:32:00,
2013-04-23 02:42:00,37.0,34.0,30.39,NNW,336,0.0,0.0,89,0.00,,,0.00,,2013-04-23 09:42:00,
2013-04-23 02:53:00,36.0,33.0,30.38,NNW,336,0.0,0.0,90,0.00,,,0.00,,2013-04-23 09:53:00,
2013-04-23 03:02:00,36.0,33.0,30.38,NNW,336,0.0,0.0,90,0.00,,,0.00,,2013-04-23 10:02:00,
2013-04-23 03:12:00,36.0,33.0,30.38,NNW,336,0.0,0.0,90,0.00,,,0.00,,2013-04-23 10:12:00,
2013-04-23 03:22:00,36.0,34.0,30.37,NNW,336,0.0,0.0,91,0.00,,,0.00,,2013-04-23 10:22:00,
2013-04-23 03:32:00,35.0,33.0,30.37,NNW,336,0.0,0.0,91,0.00,,,0.00,,2013-04-23 10:32:00,
2013-04-23 03:42:00,35.0,33.0,30.37,NNW,336,0.0,0.0,91,0.00,,,0.00,,2013-04-23 10:42:00,
2013-04-23 03:52:00,35.0,33.0,30.36,NNW,336,0.0,1.0,92,0.00,,,0.00,,2013-04-23 10:52:00,
2013-04-23 04:02:00,35.0,34.0,30.36,NNW,336,0.0,0.0,98,0.00,,,0.00,,2013-04-23 11:02:00,
2013-04-23 04:11:00,35.0,34.0,30.36,NNW,336,0.0,0.0,98,0.00,,,0.00,,2013-04-23 11:11:00,
2013-04-23 04:21:00,34.0,32.0,30.36,NNW,336,0.0,0.0,94,0.00,,,0.00,,2013-04-23 11:21:00,
2013-04-23 04:32:00,34.0,32.0,30.36,NNW,336,0.0,0.0,94,0.00,,,0.00,,2013-04-23 11:32:00,
2013-04-23 04:42:00,34.0,32.0,30.36,NNW,336,0.0,0.0,94,0.00,,,0.00,,2013-04-23 11:42:00,
2013-04-23 04:52:00,34.0,33.0,30.37,NNW,336,0.0,0.0,95,0.00,,,0.00,,2013-04-23 11:52:00,
2013-04-23 05:01:00,33.0,32.0,30.36,NNW,336,0.0,0.0,96,0.00,,,0.00,,2013-04-23 12:01:00,
2013-04-23 05:12:00,33.0,32.0,30.36,NNW,336,0.0,0.0,96,0.00,,,0.00,,2013-04-23 12:12:00,
2013-04-23 05:22:00,33.0,32.0,30.36,NNW,336,0.0,0.0,96,0.00,,,0.00,,2013-04-23 12:22:00,
2013-04-23 05:32:00,33.0,32.0,30.36,NNW,336,0.0,0.0,96,0.00,,,0.00,,2013-04-23 12:32:00,
2013-04-23 05:41:00,33.0,32.0,30.36,NNW,336,0.0,0.0,96,0.00,,,0.00,,2013-04-23 12:41:00,
2013-04-23 05:52:00,33.0,32.0,30.36,NNW,336,0.0,0.0,96,0.00,,,0.00,,2013-04-23 12:52:00,
2013-04-23 06:01:00,33.0,32.0,30.35,NNW,336,0.0,0.0,96,0.00,,,0.00,,2013-04-23 13:01:00,
2013-04-23 06:11:00,33.0,32.0,30.35,NNW,336,0.0,0.0,96,0.00,,,0.00,,2013-04-23 13:11:00,
2013-04-23 06:21:00,33.0,32.0,30.35,NNW,336,0.0,0.0,96,0.00,,,0.00,,2013-04-23 13:21:00,
2013-04-23 06:31:00,33.0,32.0,30.34,NNW,336,0.0,0.0,96,0.00,,,0.00,,2013-04-23 13:31:00,
2013-04-23 06:41:00,33.0,32.0,30.34,NNW,336,0.0,0.0,96,0.00,,,0.00,,2013-04-23 13:41:00,
2013-04-23 06:52:00,33.0,32.0,30.34,NNW,336,0.0,0.0,97,0.00,,,0.00,,2013-04-23 13:52:00,
2013-04-23 07:01:00,33.0,32.0,30.34,NNW,336,0.0,0.0,97,0.00,,,0.00,,2013-04-23 14:01:00,
2013-04-23 07:11:00,33.0,32.0,30.34,NNW,336,0.0,0.0,97,0.00,,,0.00,,2013-04-23 14:11:00,
2013-04-23 07:22:00,34.0,34.0,30.34,NNW,336,0.0,0.0,98,0.00,,,0.00,,2013-04-23 14:22:00,
2013-04-23 07:31:00,35.0,34.0,30.34,NNW,336,0.0,0.0,98,0.00,,,0.00,,2013-04-23 14:31:00,
2013-04-23 07:41:00,35.0,34.0,30.34,NNW,336,0.0,0.0,98,0.00,,,0.00,,2013-04-23 14:41:00,
2013-04-23 07:52:00,37.0,36.0,30.34,NNW,336,0.0,0.0,97,0.00,,,0.00,,2013-04-23 14:52:00,
2013-04-23 08:01:00,37.0,36.0,30.34,NNW,336,0.0,0.0,97,0.00,,,0.00,,2013-04-23 15:01:00,
2013-04-23 08:11:00,39.0,38.0,30.33,NNW,336,0.0,1.0,95,0.00,,,0.00,,2013-04-23 15:11:00,
2013-04-23 08:21:00,39.0,37.0,30.33,NNW,336,0.0,0.0,93,0.00,,,0.00,,2013-04-23 15:21:00,
2013-04-23 08:32:00,41.0,38.0,30.32,NNW,336,0.0,0.0,90,0.00,,,0.00,,2013-04-23 15:32:00,
2013-04-23 08:42:00,41.0,38.0,30.32,NNW,336,0.0,0.0,90,0.00,,,0.00,,2013-04-23 15:42:00,
2013-04-23 08:53:00,44.0,40.0,30.32,NE,55,0.0,2.0,85,0.00,,,0.00,,2013-04-23 15:53:00,
2013-04-23 09:02:00,45.0,40.0,30.32,West,267,0.0,5.0,83,0.00,,,0.00,,2013-04-23 16:02:00,
2013-04-23 09:12:00,45.0,40.0,30.32,West,267,0.0,5.0,83,0.00,,,0.00,,2013-04-23 16:12:00,
2013-04-23 09:23:00,46.0,40.0,30.32,West,267,0.0,2.0,78,0.00,,,0.00,,2013-04-23 16:23:00,
2013-04-23 09:33:00,47.0,41.0,30.31,WSW,251,1.0,2.0,78,0.00,,,0.00,,2013-04-23 16:33:00,
2013-04-23 09:42:00,47.0,41.0,30.31,WSW,251,1.0,2.0,78,0.00,,,0.00,,2013-04-23 16:42:00,
2013-04-23 09:52:00,47.0,40.0,30.31,SW,229,1.0,4.0,76,0.00,,,0.00,,2013-04-23 16:52:00,
2013-04-23 10:02:00,48.0,40.0,30.30,WSW,238,0.0,3.0,74,0.00,,,0.00,,2013-04-23 17:02:00,
2013-04-23 10:11:00,48.0,40.0,30.30,WSW,238,0.0,3.0,74,0.00,,,0.00,,2013-04-23 17:11:00,
2013-04-23 10:22:00,49.0,40.0,30.30,WNW,294,1.0,3.0,71,0.00,,,0.00,,2013-04-23 17:22:00,
2013-04-23 10:32:00,49.0,40.0,30.30,WSW,253,1.0,3.0,71,0.00,,,0.00,,2013-04-23 17:32:00,
2013-04-23 10:42:00,49.0,40.0,30.30,WSW,253,1.0,3.0,71,0.00,,,0.00,,2013-04-23 17:42:00,
2013-04-23 10:53:00,49.0,38.0,30.30,WNW,294,2.0,4.0,65,0.00,,,0.00,,2013-04-23 17:53:00,
2013-04-23 11:01:00,50.0,38.0,30.30,WSW,240,0.0,3.0,63,0.00,,,0.00,,2013-04-23 18:01:00,
2013-04-23 11:12:00,50.0,38.0,30.30,WSW,240,0.0,3.0,63,0.00,,,0.00,,2013-04-23 18:12:00,
2013-04-23 11:22:00,50.0,38.0,30.31,West,277,1.0,4.0,62,0.00,,,0.00,,2013-04-23 18:22:00,
2013-04-23 11:31:00,51.0,39.0,30.32,West,259,2.0,5.0,63,0.00,,,0.00,,2013-04-23 18:31:00,
2013-04-23 11:42:00,51.0,39.0,30.32,West,259,2.0,5.0,63,0.00,,,0.00,,2013-04-23 18:42:00,
2013-04-23 11:52:00,52.0,39.0,30.31,WNW,288,2.0,6.0,60,0.00,,,0.00,,2013-04-23 18:52:00,
2013-04-23 12:02:00,53.0,38.0,30.31,WSW,245,2.0,6.0,57,0.00,,,0.00,,2013-04-23 19:02:00,
2013-04-23 12:11:00,53.0,38.0,30.31,WSW,245,2.0,6.0,57,0.00,,,0.00,,2013-04-23 19:11:00,
2013-04-23 12:21:00,53.0,37.0,30.30,West,272,0.0,4.0,55,0.00,,,0.00,,2013-04-23 19:21:00,
2013-04-23 12:32:00,53.0,36.0,30.29,East,94,1.0,3.0,52,0.00,,,0.00,,2013-04-23 19:32:00,
2013-04-23 12:42:00,53.0,36.0,30.29,East,94,1.0,3.0,52,0.00,,,0.00,,2013-04-23 19:42:00,
2013-04-23 12:52:00,54.0,36.0,30.29,West,277,1.0,4.0,50,0.00,,,0.00,,2013-04-23 19:52:00,
2013-04-23 13:01:00,55.0,38.0,30.29,WSW,241,2.0,6.0,52,0.00,,,0.00,,2013-04-23 20:01:00,
2013-04-23 13:11:00,55.0,38.0,30.29,WSW,241,2.0,6.0,52,0.00,,,0.00,,2013-04-23 20:11:00,
2013-04-23 13:21:00,56.0,38.0,30.29,NNW,338,2.0,6.0,51,0.00,,,0.00,,2013-04-23 20:21:00,
2013-04-23 13:31:00,55.0,35.0,30.29,WSW,254,1.0,6.0,46,0.00,,,0.00,,2013-04-23 20:31:00,
2013-04-23 13:41:00,55.0,35.0,30.29,WSW,254,1.0,6.0,46,0.00,,,0.00,,2013-04-23 20:41:00,
2013-04-23 13:52:00,56.0,35.0,30.28,North,360,2.0,6.0,45,0.00,,,0.00,,2013-04-23 20:52:00,
2013-04-23 14:01:00,58.0,38.0,30.27,NE,56,1.0,7.0,47,0.00,,,0.00,,2013-04-23 21:01:00,
2013-04-23 14:11:00,58.0,38.0,30.27,NE,56,1.0,7.0,47,0.00,,,0.00,,2013-04-23 21:11:00,
2013-04-23 14:21:00,59.0,38.0,30.27,NW,307,1.0,9.0,46,0.00,,,0.00,,2013-04-23 21:21:00,
2013-04-23 14:32:00,59.0,38.0,30.27,NW,315,2.0,8.0,45,0.00,,,0.00,,2013-04-23 21:32:00,
2013-04-23 14:52:00,61.0,40.0,30.27,NW,315,2.0,5.0,45,0.00,,,0.00,,2013-04-23 21:52:00,
2013-04-23 15:02:00,60.0,38.0,30.26,NNW,338,4.0,9.0,44,0.00,,,0.00,,2013-04-23 22:02:00,
2013-04-23 15:22:00,61.0,38.0,30.26,SSW,195,4.0,7.0,43,0.00,,,0.00,,2013-04-23 22:22:00,
2013-04-23 15:32:00,61.0,38.0,30.26,WNW,283,3.0,10.0,42,0.00,,,0.00,,2013-04-23 22:32:00,
2013-04-23 15:52:00,61.0,36.0,30.26,West,268,4.0,9.0,40,0.00,,,0.00,,2013-04-23 22:52:00,
2013-04-23 16:02:00,61.0,36.0,30.25,North,11,4.0,9.0,39,0.00,,,0.00,,2013-04-23 23:02:00,
2013-04-23 16:12:00,61.0,36.0,30.25,North,11,4.0,9.0,39,0.00,,,0.00,,2013-04-23 23:12:00,
2013-04-23 16:22:00,61.0,36.0,30.24,WSW,244,3.0,11.0,39,0.00,,,0.00,,2013-04-23 23:22:00,
2013-04-23 16:31:00,62.0,35.0,30.24,WSW,254,3.0,11.0,37,0.00,,,0.00,,2013-04-23 23:31:00,
2013-04-23 17:01:00,61.0,36.0,30.22,WNW,297,6.0,12.0,39,0.00,,,0.00,,2013-04-24 00:01:00,
2013-04-23 17:21:00,60.0,35.0,30.22,North,355,3.0,10.0,39,0.00,,,0.00,,2013-04-24 00:21:00,
2013-04-23 17:32:00,61.0,36.0,30.22,NNW,344,3.0,6.0,40,0.00,,,0.00,,2013-04-24 00:32:00,
2013-04-23 17:52:00,60.0,36.0,30.22,WNW,291,3.0,10.0,40,0.00,,,0.00,,2013-04-24 00:52:00,
2013-04-23 18:01:00,60.0,36.0,30.22,NNW,343,4.0,9.0,41,0.00,,,0.00,,2013-04-24 01:01:00,
2013-04-23 18:21:00,60.0,37.0,30.23,NNW,327,4.0,8.0,42,0.00,,,0.00,,2013-04-24 01:21:00,
2013-04-23 18:31:00,59.0,37.0,30.22,WSW,251,2.0,9.0,43,0.00,,,0.00,,2013-04-24 01:31:00,
2013-04-23 18:52:00,59.0,37.0,30.23,NW,306,3.0,10.0,43,0.00,,,0.00,,2013-04-24 01:52:00,
2013-04-23 19:23:00,58.0,38.0,30.23,WNW,301,2.0,5.0,47,0.00,,,0.00,,2013-04-24 02:23:00,
2013-04-23 19:56:00,57.0,39.0,30.23,WNW,296,1.0,3.0,50,0.00,,,0.00,,2013-04-24 02:56:00,
2013-04-23 20:02:00,56.0,38.0,30.23,NNW,327,1.0,3.0,51,0.00,,,0.00,,2013-04-24 03:02:00,
2013-04-23 20:23:00,55.0,37.0,30.23,NNW,330,0.0,3.0,50,0.00,,,0.00,,2013-04-24 03:23:00,
2013-04-23 20:34:00,55.0,38.0,30.24,NNW,336,1.0,3.0,52,0.00,,,0.00,,2013-04-24 03:34:00,
2013-04-23 20:44:00,55.0,38.0,30.24,NNW,336,1.0,3.0,52,0.00,,,0.00,,2013-04-24 03:44:00,
2013-04-23 20:58:00,54.0,38.0,30.24,NNW,336,0.0,3.0,54,0.00,,,0.00,,2013-04-24 03:58:00,
2013-04-23 21:02:00,53.0,38.0,30.24,NNW,336,0.0,1.0,57,0.00,,,0.00,,2013-04-24 04:02:00,
2013-04-23 21:12:00,53.0,38.0,30.24,NNW,336,0.0,1.0,57,0.00,,,0.00,,2013-04-24 04:12:00,
2013-04-23 21:22:00,52.0,39.0,30.25,NNW,336,0.0,1.0,60,0.00,,,0.00,,2013-04-24 04:22:00,
2013-04-23 21:33:00,51.0,38.0,30.25,NNW,336,0.0,0.0,62,0.00,,,0.00,,2013-04-24 04:33:00,
2013-04-23 21:43:00,51.0,38.0,30.25,NNW,336,0.0,0.0,62,0.00,,,0.00,,2013-04-24 04:43:00,
2013-04-23 21:52:00,50.0,39.0,30.26,NNW,336,0.0,2.0,65,0.00,,,0.00,,2013-04-24 04:52:00,
2013-04-23 22:02:00,50.0,40.0,30.26,NNW,336,0.0,1.0,69,0.00,,,0.00,,2013-04-24 05:02:00,
2013-04-23 22:12:00,50.0,40.0,30.26,NNW,336,0.0,1.0,69,0.00,,,0.00,,2013-04-24 05:12:00,
2013-04-23 22:21:00,49.0,39.0,30.26,North,355,0.0,2.0,67,0.00,,,0.00,,2013-04-24 05:21:00,
2013-04-23 22:32:00,50.0,39.0,30.27,NW,323,0.0,3.0,67,0.00,,,0.00,,2013-04-24 05:32:00,
2013-04-23 22:42:00,50.0,39.0,30.27,NW,323,0.0,3.0,67,0.00,,,0.00,,2013-04-24 05:42:00,
2013-04-23 22:52:00,50.0,40.0,30.27,NNW,347,0.0,4.0,68,0.00,,,0.00,,2013-04-24 05:52:00,
2013-04-23 23:02:00,49.0,39.0,30.27,NNW,346,0.0,2.0,69,0.00,,,0.00,,2013-04-24 06:02:00,
2013-04-23 23:11:00,49.0,39.0,30.27,NNW,346,0.0,2.0,69,0.00,,,0.00,,2013-04-24 06:11:00,
2013-04-23 23:21:00,49.0,40.0,30.27,North,355,0.0,2.0,70,0.00,,,0.00,,2013-04-24 06:21:00,
2013-04-23 23:32:00,49.0,40.0,30.27,East,84,0.0,3.0,70,0.00,,,0.00,,2013-04-24 06:32:00,
2013-04-23 23:41:00,49.0,40.0,30.27,East,84,0.0,3.0,70,0.00,,,0.00,,2013-04-24 06:41:00,
2013-04-23 23:52:00,48.0,39.0,30.28,East,85,0.0,1.0,72,0.00,,,0.00,,2013-04-24 06:52:00,